Regional Weather Roundup
Issued by NWS Glasgow, MT

Home | Current Version | Previous Version | Text Only | Print | Product List | Glossary On
Versions: 1 2 3 4 5 6 7 8 9 10 11 12 13 14 15 16 17 18 19 20 21 22 23 24 25 26 27 28 29 30 31 32 33 34 35 36 37 38 39 40 41 42 43 44 45 46 47 48 49 50
000
ASUS45 KGGW 310915
RWRGGW
HOURLY WEATHER ROUNDUP FOR NORTHEAST MONTANA
NATIONAL WEATHER SERVICE GLASGOW MONTANA
300 AM MDT SUN AUG 31 2014

NOTE: "FAIR" INDICATES FEW OR NO CLOUDS BELOW 12,000 FEET WITH NO
SIGNIFICANT WEATHER AND/OR OBSTRUCTIONS TO VISISBILITY.

NORTHEAST MONTANA


CITY           SKY/WX    TMP DP  RH WIND       PRES   REMARKS
GLASGOW        CLEAR     53  52  96 NE8       29.70S
PLENTYWOOD       N/A     56  55  97 N2          N/A
WOLF POINT     PTCLDY    54  52  93 CALM      29.68F FOG
JORDAN           N/A     56  54  93 W6        29.71S
WINNETT          N/A     55  49  80 S3          N/A
SIDNEY         MOCLDY    55  54  94 W5        29.70S
GLENDIVE       MOCLDY    55  54  94 SW5       29.72F
MALTA            N/A     52  50  93 SW3         N/A
SCOBEY           N/A     52  46  80 CALM      29.70  VSB 1

FORT PECK REPORTS


CITY           SKY/WX    TMP DP  RH WIND       PRES   REMARKS
FORT PECK        N/A     60  58  92 SE3         N/A
THE PINES        N/A     59  53  80 W3          N/A

SOUTHEAST MONTANA


CITY           SKY/WX    TMP DP  RH WIND       PRES   REMARKS
BILLINGS       CLOUDY    57  47  69 SW8       29.80F
MILES CITY     CLOUDY    61 N/A N/A SW3       29.72F
BAKER          CLOUDY    58  56  93 W7        29.73F
LIVINGSTON     MOCLDY    54  46  74 NW12      29.87S

CENTRAL MONTANA


CITY           SKY/WX    TMP DP  RH WIND       PRES   REMARKS
HAVRE          CLOUDY    52  48  86 W9        29.75R
LEWISTOWN      CLOUDY    53  46  77 S6        29.83R
GREAT FALLS    MOCLDY    50  40  68 S5        29.81R
CUT BANK       CLOUDY    51  39  63 W13       29.80R
HELENA         CLOUDY    53  43  68 W3        29.85S
BUTTE          MOCLDY    45  44  97 E5        29.93S
BOZEMAN        CLOUDY    50  47  89 SE6       29.90R

WESTERN MONTANA


CITY           SKY/WX    TMP DP  RH WIND       PRES   REMARKS
MISSOULA       CLOUDY    55  48  77 W5        29.90R
KALISPELL      NOT AVBL

NORTH DAKOTA


CITY           SKY/WX    TMP DP  RH WIND       PRES   REMARKS
WILLISTON      CLOUDY    57  56  96 NW7       29.67S
DICKINSON      CLOUDY    60  58  92 W12       29.66F
MINOT          NOT AVBL
BISMARCK       LGT RAIN  62  61  96 NW3       29.63R

SOUTHERN SASKATCHEWAN


CITY           SKY/WX    TMP DP  RH WIND       PRES   REMARKS
REGINA         FOG       52 N/A N/A N2        29.67S VSB 1/4
ESTEVAN        FOG       59  59 100 NW6       29.65F VSB 1/4
SWIFT CURRENT  CLOUDY    52  48  87 SW2       29.71S



USA.gov is the U.S. government's official web portal to all federal, state and local government web resources and services.